Regional Weather Roundup
Issued by NWS San Angelo, TX

Home | Current Version | Previous Version | Text Only | Print | Product List | Glossary On
Versions: 1 2 3 4 5 6 7 8 9 10 11 12 13 14 15 16 17 18 19 20 21 22 23 24 25 26 27 28 29 30 31 32 33 34 35 36 37 38 39 40 41 42 43 44 45 46 47 48 49 50
000
ASUS44 KSJT 250010
RWRSJT
WEST CENTRAL TEXAS REGIONAL WEATHER ROUNDUP
NATIONAL WEATHER SERVICE SAN ANGELO TX
700 PM CDT SUN SEP 24 2017

NOTE: "FAIR" INDICATES FEW OR NO CLOUDS BELOW 12,000 FEET WITH NO
SIGNIFICANT WEATHER AND/OR OBSTRUCTIONS TO VISIBILITY.

TXZ049-054-064>066-071>073-076>078-098-099-113-114-127-128-139-140-
154-155-168>170-250100
...LOCATIONS ACROSS WEST CENTRAL TEXAS...

CITY           SKY/WX    TMP DP  RH WIND       PRES   REMARKS
SAN ANGELO     CLOUDY    74  66  76 SE6       29.84F
ABILENE        CLOUDY    78  65  63 S10       29.87R
DYESS AFB      CLOUDY    79  66  64 S13       29.85S
JUNCTION       CLOUDY    87  60  40 S5        29.83R
SWEETWATER     CLOUDY    79  64  59 SE9       29.90S
BROWNWOOD      NOT AVBL
COLEMAN        CLOUDY    73  68  82 SW8       29.89R
SONORA         CLOUDY    75  72  88 CALM      29.89S
OZONA          FAIR      75  68  78 SE5       29.89R
BRADY          NOT AVBL
$$

TEXAS PANHANDLE/OKLAHOMA PANHANDLE

CITY           SKY/WX    TMP DP  RH WIND       PRES   REMARKS
AMARILLO       MOCLDY    74  65  73 SE20      29.89R
BORGER         PTCLDY    76  66  71 SE14G22   29.87R
CANADIAN       MOCLDY    73  68  82 SE8       29.88S
DALHART        PTCLDY    76  60  57 S14       29.87R
DUMAS          CLEAR     74  64  69 S13G18    29.87R
GUYMON         NOT AVBL
HEREFORD       PTCLDY    76  66  71 S15G21    29.89R
PAMPA          CLOUDY    74  66  74 S18G26    29.91R
PERRYTON       PTCLDY    74  68  79 SE17      29.86S
$$

SOUTHERN PANHANDLE/SOUTH PLAINS/ROLLING PLAINS

CITY           SKY/WX    TMP DP  RH WIND       PRES   REMARKS
LUBBOCK        MOCLDY    73  66  78 SE16      29.89R
SNYDER         CLOUDY    78  65  65 SE14      29.88R
CHILDRESS      LGT RAIN  73  68  84 S9        29.88S
SEMINOLE       CLEAR     76  65  68 SE16      29.88R
$$

PERMIAN BASIN

CITY           SKY/WX    TMP DP  RH WIND       PRES   REMARKS
MIDLAND        MOCLDY    78  66  66 SE16      29.86R
ODESSA         MOCLDY    77  66  68 SE20      29.86R
WINK           CLEAR     80  67  64 SE15G25   29.79S
$$

FAR WEST/SOUTHWEST MOUNTAINS/TRANS PECOS

CITY           SKY/WX    TMP DP  RH WIND       PRES   REMARKS
ALPINE         CLEAR     78  62  56 SE14G20   29.93S
DRYDEN           N/A     76  71  85 E14       29.81S
EL PASO        MOSUNNY   85  39  19 SW14      29.81S
FORT STOCKTON  NOT AVBL
GUADALUPE PASS NOT AVBL
MARFA          NOT AVBL
PECOS          PTCLDY    82  67  61 E15       29.77S
$$

DALLAS/FORT WORTH METROPLEX

CITY           SKY/WX    TMP DP  RH WIND       PRES   REMARKS
DFW AIRPORT    PTCLDY    89  60  37 SE10      29.82S
FTW MEACHAM    PTCLDY    89  62  40 SE10      29.82S
DAL-EXECUTIVE  PTCLDY    89  60  37 SE12      29.83S
GRAND PRAIRIE  CLEAR     90  59  35 E8        29.85R
ADDISON        PTCLDY    88  63  42 E14G21    29.85S
MESQUITE       PTCLDY    88  63  42 E8        29.86R
LANCASTER      CLEAR     88  64  43 E14       29.85S
$$

NORTH CENTRAL TEXAS

CITY           SKY/WX    TMP DP  RH WIND       PRES   REMARKS
SHRMAN/DENISON CLEAR     85  64  48 SE10      29.86F
GAINESVILLE    CLEAR     83  62  49 SE5       29.87S
BRIDGEPORT     CLOUDY    85  59  42 SE5       29.85S
DENTON         CLEAR     87  64  46 SE9       29.83S
WAXAHACHIE     CLEAR     88  62  42 SE5       29.86R
GRANBURY       CLEAR     89  60  37 SE7       29.84R
$$

WESTERN NORTH TEXAS

CITY           SKY/WX    TMP DP  RH WIND       PRES   REMARKS
WICHITA FALLS  CLOUDY    84  62  47 SE9       29.84R
VERNON         CLOUDY    81  64  55 CALM      29.86S
BRECKENRIDGE   MOCLDY    86  62  45 SW15G22   29.85R
COMANCHE       CLOUDY    84  64  50 S3        29.85R
$$

CENTRAL AND SOUTH CENTRAL TEXAS

CITY           SKY/WX    TMP DP  RH WIND       PRES   REMARKS
AUSTIN/BERGSTM MOCLDY    86  71  60 SE15G21   29.82R
WACO           CLEAR     89  62  40 SE12      29.82S
HILLSBORO      PTCLDY    90  64  42 SE9       29.84S
TEMPLE         CLEAR     87  66  49 SE13      29.84R
KILLEEN-GRAY   PTCLDY   N/A N/A N/A SE17      29.84R
FORT HOOD      PTCLDY   N/A N/A N/A SE14      29.81R
GEORGETOWN     MOCLDY    83  71  67 VRB5      29.86S
LAGO VISTA     FAIR      84  67  55 SE8G18    29.86R
SAN MARCOS     CLOUDY    82  68  62 SE9       29.84R
NEW BRAUNFELS  CLOUDY    85  69  58 SE16      29.82R
RANDOLPH AFB   PTCLDY    84  70  62 SE10      29.82R
SAN ANTONIO    MOCLDY    83  70  64 E15G21    29.82R
STINSON        CLEAR     87  71  58 E15       29.79R
PLEASANTON     NOT AVBL
LA GRANGE      CLEAR     83  73  73 S3        29.82S
GIDDINGS       CLEAR     82  69  65 S3        29.85R
$$

EAST TEXAS

CITY           SKY/WX    TMP DP  RH WIND       PRES   REMARKS
PARIS          CLEAR     84  66  54 SE7       29.89R
CLARKSVILLE    NOT AVBL
TYLER          CLEAR     85  61  44 SE8       29.87R
LONGVIEW       CLEAR     85  65  51 SE7       29.87R
PALESTINE      CLEAR     86  66  50 E7        29.88R
NACOGDOCHES    CLEAR     81  70  69 E3        29.89R
$$

TEXAS HILL COUNTRY AND EDWARDS PLATEAU

CITY           SKY/WX    TMP DP  RH WIND       PRES   REMARKS
LLANO          CLOUDY    86  66  51 E7G20     29.86R
HORSESHOE BAY  FAIR      84  66  54 SE9G16    29.84R
KERRVILLE      LGT RAIN  82  69  64 SE9       29.85R
FREDERICKSBRG  PTCLDY    81  64  54 SE6       29.87R
ROCKSPRINGS    NOT AVBL
HONDO          PTCLDY    91  66  43 E18G24    29.79R
UVALDE         MOCLDY    87  64  45 S5        29.78S
DEL RIO        CLOUDY    79  75  87 CALM      29.76S
$$

SOUTHEAST TEXAS

CITY           SKY/WX    TMP DP  RH WIND       PRES   REMARKS
COLLEGE STN    CLEAR     87  69  54 E8        29.84R
CALDWELL       CLEAR     86  67  53 SE5       29.84R
CROCKETT       CLOUDY    82  68  61 CALM      29.90R
BRENHAM        PTCLDY    87  69  53 E6        29.84S
HUNTSVILLE     CLOUDY    79  71  76 S5        29.87R
CONROE         MOCLDY    81  71  71 E6        29.87R
HOUSTON BUSH   MOCLDY    79  73  82 E12       29.87R
HOUSTON HOBBY  PTCLDY    85  69  58 E12       29.84R
PERLAND        CLEAR     86  71  60 E8        29.86S
WHARTON        CLEAR     80  73  79 E6        29.84R
$$

THE UPPER TEXAS COAST

CITY           SKY/WX    TMP DP  RH WIND       PRES   REMARKS
ORANGE         CLEAR     83  74  73 MISG      29.88R
PORT ARTHUR    CLEAR     80  72  76 SE7       29.86S
GALVESTON      PTCLDY    85  75  72 E14       29.86R
ANGLETON       CLEAR     83  72  69 SE7       29.85R
BAY CITY       HAZE      84  73  69 E8        29.84R VSB 1
$$

TEXAS COASTAL BEND, RIO GRANDE PLAINS DEEP SOUTH TEXAS

CITY           SKY/WX    TMP DP  RH WIND       PRES   REMARKS
VICTORIA       CLEAR     83  73  72 MISG      29.82R
BEEVILLE       FAIR      86  63  46 SE14G21   29.79S
ROCKPORT       PTCLDY    83  76  79 E15       29.80R
PORT ARANSAS   NOT AVBL
PORT LAVACA    NOT AVBL
CORPUS CHRISTI PTCLDY    85  73  67 SE16      29.79R
KINGSVILLE NAS PTCLDY    85  76  74 E18       29.78R
COTULLA        CLOUDY    88  69  53 E15G25    29.74R
LAREDO         CLOUDY    92  69  47 E21G26    29.73R
BROWNSVILLE    CLEAR     85  74  69 SE14      29.77R
PORT ISABEL    PTCLDY    85  76  74 E15       29.77R
HEBBRONVILLE   CLEAR     87  69  54 E17G25    29.78R
MCALLEN        PTCLDY    90  73  57 E16       29.74R
WESLACO        PTCLDY    88  69  53 SE13G20   29.75R
FALFURRIAS     CLEAR    -38  32 100 E13G20    29.77R WCI -66
EDINBURG       PTCLDY    89  71  53 E15G21    29.75R
$$




USA.gov is the U.S. government's official web portal to all federal, state and local government web resources and services.